DateTimeUTC,F1_A11,F1_S11,BsB_S11,BsG_S11,BsR_S11,BbsB_S11,BbsG_S11,BbsR_S11,BaB_A11,BaG_A11,BaR_A11,Tu_S11,T_S11,Uu_S11,U_S11,P_S11,T1_A11
2021-09-16T02:00:00Z,00000200,21000000,,,,,,,-000.22,0000.05,-000.07,18.1,25.5,,00.0,0658.1,31.1
2021-09-16T02:01:00Z,00000200,21000000,,,,,,,-000.25,-000.33,0000.01,18.2,25.5,,00.0,0658.1,31.1
2021-09-16T02:02:00Z,00000200,21000000,,,,,,,-000.13,-000.35,-000.26,18.2,25.5,,00.0,0658.1,31.1
2021-09-16T02:03:00Z,00000200,61000000,,,,,,,0000.06,-000.37,-000.67,18.2,25.5,,00.0,0658.1,31.0
2021-09-16T02:04:00Z,00000200,41000000,-000.07,-000.34,-000.06,-000.02,0000.01,0000.04,-000.31,-000.30,0000.19,18.3,25.3,,00.0,0659.0,31.0
2021-09-16T02:05:00Z,00000200,01000000,-000.12,-000.26,-000.03,0000.13,-000.08,0000.12,0000.06,0000.32,0000.12,18.3,25.2,,00.0,0659.1,31.0
2021-09-16T02:06:00Z,00000200,01000000,-000.44,-000.54,0000.04,0000.02,0000.26,-000.11,-000.26,-000.02,-000.25,18.3,25.2,,00.0,0659.0,31.0
2021-09-16T02:07:00Z,00000200,01000000,-000.40,-000.10,-000.07,0000.70,0000.02,-000.10,0000.52,0000.06,0000.61,18.2,25.1,,00.0,0659.0,31.0
2021-09-16T02:08:00Z,00000200,01000000,-000.27,-000.25,-000.05,0000.29,0000.01,0000.03,-000.28,0000.32,-000.43,18.2,25.1,,00.0,0659.0,31.0
2021-09-16T02:09:00Z,00000200,01000000,0000.08,-000.33,-000.10,0000.31,0000.19,0000.07,0000.13,0000.27,0000.02,18.1,25.1,,00.0,0658.9,31.0
2021-09-16T02:10:00Z,00000200,01000000,-000.30,-000.09,0000.03,0000.23,0000.14,0000.02,-000.05,-000.21,0000.05,18.1,25.1,,00.0,0658.9,31.0
2021-09-16T02:11:00Z,00000200,01000000,0000.29,-000.24,0000.29,0000.37,0000.13,0000.37,0000.29,-000.09,0000.57,18.1,25.1,,00.0,0658.9,31.0
2021-09-16T02:12:00Z,00000200,01000000,-000.01,-000.10,0000.30,0000.10,0000.02,0000.28,0000.13,0000.33,0000.04,18.2,25.1,,00.0,0658.9,31.0
2021-09-16T02:13:00Z,00000200,01000000,0001.01,-000.17,-000.01,-000.09,0000.17,0000.27,0000.11,0000.07,0000.13,18.3,25.1,,00.0,0658.9,31.1
2021-09-16T02:14:00Z,00000200,01000000,-000.63,-000.25,0000.18,0000.14,-000.10,-000.12,0000.46,0000.42,0000.06,18.4,25.2,,00.0,0658.9,31.1
2021-09-16T02:15:00Z,00000200,01000000,0000.36,0000.24,0000.25,0000.38,0000.00,0000.25,-000.15,-000.48,-000.18,18.5,25.2,,00.0,0658.9,31.1
2021-09-16T02:16:00Z,00000200,01000000,0000.29,-000.23,-000.11,0000.18,-000.35,0000.14,0000.00,0000.60,0000.08,18.6,25.3,,00.0,0658.9,31.1
2021-09-16T02:17:00Z,00000200,01000000,-000.02,0000.19,0000.36,0000.48,0000.09,0000.38,0000.03,-000.18,-000.15,18.6,25.3,,00.0,0658.8,31.1
2021-09-16T02:18:00Z,00000200,01000000,0000.30,-000.03,0000.04,0000.22,0000.03,0000.17,-000.21,0000.09,0000.40,18.6,25.3,,00.0,0658.8,31.1
2021-09-16T02:19:00Z,00000200,01000000,-000.00,0000.31,0000.25,-000.12,0000.18,0000.10,0000.21,-000.36,-000.26,18.6,25.3,,00.0,0658.8,31.1
2021-09-16T02:20:00Z,00000200,01000000,-000.53,-000.05,-000.05,-000.02,0000.14,0000.04,0000.13,0000.22,0000.55,18.5,25.2,,00.0,0658.8,31.1
2021-09-16T02:21:00Z,00000200,01000000,0000.37,0000.34,0000.32,0000.07,0000.30,0000.12,0000.22,-000.11,-000.64,18.4,25.2,,00.0,0658.8,31.0
2021-09-16T02:22:00Z,00000200,01000000,-000.39,0000.34,-000.20,0000.55,0000.01,-000.20,-000.26,0000.28,-000.03,18.4,25.2,,00.0,0658.7,31.0
2021-09-16T02:23:00Z,00000200,01000000,0000.18,-000.01,0000.26,0000.32,-000.19,0000.19,-000.01,-000.30,0000.13,18.3,25.2,,00.0,0658.7,31.0
2021-09-16T02:24:00Z,00000200,01000000,-000.37,0000.16,0000.79,0000.19,0000.15,0000.31,0000.21,-000.02,-000.10,18.3,25.1,,00.0,0658.7,31.0
2021-09-16T02:25:00Z,00000200,01000000,-000.03,0000.37,-000.13,0000.87,0000.22,-000.02,-000.32,0000.23,-000.15,18.3,25.1,,00.0,0658.7,31.0
2021-09-16T02:26:00Z,00000200,01000000,-000.41,0000.14,0000.40,0000.25,-000.01,-000.16,0000.35,0000.20,0000.85,18.3,25.1,,00.0,0658.7,31.0
2021-09-16T02:27:00Z,00000200,01000000,0000.35,-000.01,0000.11,0000.63,0000.20,0000.01,0000.31,0000.33,0000.01,18.4,25.1,,00.0,0658.7,31.0
2021-09-16T02:28:00Z,00000200,01000000,-000.19,0000.32,0000.49,0000.06,0000.23,0000.08,-000.25,-000.30,-000.08,18.5,25.2,,00.0,0658.7,31.1
2021-09-16T02:29:00Z,00000200,01000000,0000.24,-000.22,0000.08,0000.45,-000.17,0000.01,0000.41,0000.33,-000.21,18.6,25.3,,00.0,0658.7,31.1
2021-09-16T02:30:00Z,00000200,01000000,0000.26,-000.07,-000.10,0000.37,0000.11,-000.24,-000.29,-000.42,0000.41,18.6,25.3,,00.0,0658.7,31.1
2021-09-16T02:31:00Z,00000200,01000000,0000.50,0000.04,0000.07,0000.31,-000.00,-000.02,-000.09,0000.29,-000.05,18.6,25.3,,00.0,0658.6,31.1
2021-09-16T02:32:00Z,00000200,01000000,-000.23,0000.07,0000.08,0000.06,0000.21,-000.06,0000.03,-000.26,-000.36,18.6,25.3,,00.0,0658.6,31.1
2021-09-16T02:33:00Z,00000200,01000000,0000.01,-000.23,0000.03,-000.37,0000.25,0000.15,0000.32,0000.01,-000.16,18.6,25.3,,00.0,0658.6,31.0
2021-09-16T02:34:00Z,00000200,01000000,0000.03,0000.12,0000.31,0000.05,0000.04,-000.16,-000.49,0000.10,0000.10,18.5,25.2,,00.0,0658.6,31.0
2021-09-16T02:35:00Z,00000200,01000000,0000.06,-000.18,0000.10,0000.15,0000.09,-000.02,0000.13,0000.03,-000.19,18.4,25.2,,00.0,0658.6,31.0
2021-09-16T02:36:00Z,00000200,01000000,0000.08,-000.01,0000.17,0000.17,0000.10,-000.08,-000.28,-000.42,-000.29,18.4,25.2,,00.0,0658.5,31.0
2021-09-16T02:37:00Z,00000200,01000000,-000.01,-000.01,-000.06,0000.31,0000.09,-000.22,0000.07,-000.02,0000.38,18.3,25.1,,00.0,0658.5,31.0
2021-09-16T02:38:00Z,00000200,01000000,-000.06,-000.17,0000.41,-000.07,0000.24,0000.30,0000.16,0000.22,-000.21,18.2,25.1,,00.0,0658.5,31.0
2021-09-16T02:39:00Z,00000200,01000000,0000.37,0000.14,0000.55,0000.59,0000.04,0000.56,0000.07,0000.04,0000.45,18.2,25.1,,00.0,0658.4,31.0
2021-09-16T02:40:00Z,00000200,01000000,-000.04,-000.26,0000.29,0000.24,-000.21,-000.01,0000.46,0000.24,-000.08,18.2,25.0,,00.0,0658.4,31.0
2021-09-16T02:41:00Z,00000200,01000000,-000.12,-000.13,-000.32,0000.51,-000.04,-000.46,-000.47,-000.10,0000.16,18.2,25.0,,00.0,0658.4,31.0
2021-09-16T02:42:00Z,00000200,01000000,0000.18,-000.10,-000.15,0000.44,-000.12,0000.05,0000.47,0000.17,0000.12,18.3,25.1,,00.0,0658.4,31.0
2021-09-16T02:43:00Z,00000200,01000000,0000.78,0000.51,0000.22,0000.17,-000.05,0000.05,-000.51,-000.21,-000.31,18.4,25.1,,00.0,0658.4,31.0
2021-09-16T02:44:00Z,00000200,01000000,0000.19,0000.02,0000.07,-000.22,0000.11,0000.08,0000.48,0000.17,0000.41,18.5,25.2,,00.0,0658.4,31.1
2021-09-16T02:45:00Z,00000200,01000000,-000.08,0000.05,0000.27,0000.50,-000.01,0000.02,-000.03,0000.56,-000.14,18.6,25.2,,00.0,0658.3,31.1
2021-09-16T02:46:00Z,00000200,01000000,-000.23,-000.06,0000.48,0000.51,0000.03,0000.07,-000.21,-000.32,-000.05,18.7,25.3,,00.0,0658.3,31.1
2021-09-16T02:47:00Z,00000200,01000000,-000.09,0000.05,0000.13,0000.30,0000.06,0000.13,0000.11,-000.61,0000.06,18.7,25.3,,00.0,0658.3,31.1
2021-09-16T02:48:00Z,00000200,01000000,0000.16,-000.19,0000.05,-000.18,-000.02,0000.13,-000.39,0000.17,-000.18,18.6,25.3,,00.0,0658.3,31.1
2021-09-16T02:49:00Z,00000200,01000000,0000.23,-000.05,0000.31,0000.64,0000.22,0000.29,0000.37,0000.36,-000.21,18.5,25.3,,00.0,0658.3,31.0
2021-09-16T02:50:00Z,00000200,01000000,-000.13,-000.16,0000.12,0000.56,-000.15,-000.12,-000.30,-000.73,0000.21,18.5,25.2,,00.0,0658.3,31.0
2021-09-16T02:51:00Z,00000200,01000000,-000.01,-000.08,0000.34,0000.49,0000.22,-000.14,0000.43,0000.62,-000.13,18.4,25.2,,00.0,0658.3,31.0
2021-09-16T02:52:00Z,00000200,01000000,-000.32,-000.11,0000.18,-000.25,-000.13,-000.12,0000.02,0000.22,0000.06,18.4,25.1,,00.0,0658.2,31.0
2021-09-16T02:53:00Z,00000200,01000000,-000.26,-000.06,0000.07,0000.08,-000.22,-000.08,0000.01,-000.22,0000.14,18.3,25.1,,00.0,0658.2,31.0
2021-09-16T02:54:00Z,00000200,01000000,-000.03,0000.12,0000.30,0000.66,0000.14,-000.09,0000.18,0000.20,0000.03,18.2,25.1,,00.0,0658.2,31.0
2021-09-16T02:55:00Z,00000200,01000000,-000.40,-000.00,0000.32,0000.91,0000.02,0000.24,0000.11,0000.26,0000.17,18.2,25.0,,00.0,0658.2,31.0
2021-09-16T02:56:00Z,00000200,01000000,-000.09,-000.25,0000.01,0000.39,0000.04,0000.13,0000.29,-000.12,0000.37,18.3,25.1,,00.0,0658.2,31.0
2021-09-16T02:57:00Z,00000200,41000000,,,,,,,0000.68,0000.71,0000.42,18.3,25.1,,00.0,0658.4,31.0
2021-09-16T02:58:00Z,00000200,61000000,,,,,,,-000.45,-000.25,-000.34,18.0,25.3,,00.0,0657.2,31.0
2021-09-16T02:59:00Z,00000200,21000000,,,,,,,-000.02,0000.28,0000.12,18.1,25.4,,00.0,0657.2,31.1
